When you browse on this site, cookies collect data to enhance your experience and personalize the content and advertising you see.
Visit our Privacy Policy to learn more. By continuing to use the site, you agree to this use of cookies and data.

Meteo pe oră la Dziedzice

Astăzi, 21 Septembrie, Luni

Timp Temperatura Precipitaţii Vânt Presiune Umiditate
00:00 +12°C° 0 mm 2 m/s 758 mmHg 70%
01:00 +12°C° 0 mm 2 m/s 758 mmHg 72%
02:00 +12°C° 0 mm 2 m/s 758 mmHg 73%
03:00 +10°C° 0 mm 2 m/s 758 mmHg 74%
04:00 +10°C° 0 mm 2 m/s 757 mmHg 75%
05:00 +10°C° 0 mm 2 m/s 757 mmHg 75%
06:00 +12°C° 0 mm 2 m/s 757 mmHg 74%
07:00 +12°C° 0 mm 2 m/s 758 mmHg 70%
08:00 +14°C° 0 mm 2 m/s 758 mmHg 64%
09:00 +17°C° 0 mm 2 m/s 758 mmHg 59%
10:00 +19°C° 0 mm 2 m/s 757 mmHg 53%
11:00 +20°C° 0 mm 2 m/s 757 mmHg 49%
12:00 +21°C° 0 mm 2 m/s 757 mmHg 45%
13:00 +24°C° 0 mm 2 m/s 757 mmHg 43%
14:00 +24°C° 0 mm 2 m/s 756 mmHg 43%
15:00 +24°C° 0 mm 2 m/s 756 mmHg 42%
16:00 +24°C° 0 mm 1 m/s 756 mmHg 42%
17:00 +22°C° 0 mm 1 m/s 755 mmHg 48%
18:00 +20°C° 0 mm 1 m/s 755 mmHg 53%
19:00 +18°C° 0 mm 1 m/s 755 mmHg 59%
20:00 +16°C° 0 mm 2 m/s 755 mmHg 62%
21:00 +16°C° 0 mm 2 m/s 755 mmHg 64%
22:00 +15°C° 0 mm 2 m/s 755 mmHg 67%
23:00 +15°C° 0 mm 2 m/s 755 mmHg 70%

Mâine, 22 Septembrie, Marţi

Timp Temperatura Precipitaţii Vânt Presiune Umiditate
00:00 +15°C° 0 mm 2 m/s 754 mmHg 73%
01:00 +14°C° 0 mm 2 m/s 754 mmHg 75%
02:00 +14°C° 0 mm 2 m/s 754 mmHg 77%
03:00 +14°C° 0 mm 2 m/s 754 mmHg 78%
04:00 +14°C° 0 mm 2 m/s 753 mmHg 80%
05:00 +14°C° 0 mm 2 m/s 753 mmHg 78%
06:00 +15°C° 0 mm 2 m/s 753 mmHg 77%
07:00 +15°C° 0 mm 2 m/s 753 mmHg 76%
08:00 +17°C° 0 mm 2 m/s 753 mmHg 67%
09:00 +19°C° 0 mm 2 m/s 753 mmHg 59%
10:00 +21°C° 0 mm 3 m/s 752 mmHg 50%
11:00 +22°C° 0 mm 3 m/s 752 mmHg 48%
12:00 +25°C° 0 mm 3 m/s 752 mmHg 46%
13:00 +26°C° 0 mm 3 m/s 751 mmHg 43%
14:00 +26°C° 0 mm 3 m/s 751 mmHg 45%
15:00 +26°C° 0 mm 3 m/s 750 mmHg 46%
16:00 +26°C° 0 mm 3 m/s 750 mmHg 47%
17:00 +24°C° 0 mm 2 m/s 750 mmHg 52%
18:00 +21°C° 0 mm 2 m/s 750 mmHg 57%
19:00 +19°C° 0 mm 2 m/s 749 mmHg 62%
20:00 +18°C° 0 mm 2 m/s 749 mmHg 64%
21:00 +18°C° 0 mm 2 m/s 749 mmHg 66%
22:00 +17°C° 0 mm 3 m/s 749 mmHg 68%
23:00 +17°C° 0 mm 2 m/s 749 mmHg 71%

Poimâine, 23 Septembrie, Miercuri

Timp Temperatura Precipitaţii Vânt Presiune Umiditate
00:00 +16°C° 0 mm 2 m/s 749 mmHg 74%
01:00 +16°C° 0 mm 2 m/s 749 mmHg 76%
02:00 +16°C° 0 mm 2 m/s 748 mmHg 78%
03:00 +16°C° 0 mm 2 m/s 748 mmHg 79%
04:00 +15°C° 0 mm 2 m/s 748 mmHg 80%
05:00 +16°C° 0 mm 2 m/s 748 mmHg 80%
06:00 +16°C° 0 mm 2 m/s 748 mmHg 80%
07:00 +16°C° 0 mm 2 m/s 748 mmHg 79%
08:00 +18°C° 0 mm 2 m/s 748 mmHg 72%
09:00 +21°C° 0 mm 2 m/s 748 mmHg 65%
10:00 +24°C° 0 mm 3 m/s 747 mmHg 58%
11:00 +25°C° 0 mm 3 m/s 747 mmHg 55%
12:00 +26°C° 0 mm 3 m/s 747 mmHg 52%
13:00 +27°C° 0 mm 3 m/s 747 mmHg 49%
14:00 +27°C° 0 mm 3 m/s 747 mmHg 49%
15:00 +27°C° 0 mm 3 m/s 747 mmHg 49%
16:00 +27°C° 0 mm 3 m/s 747 mmHg 50%
17:00 +25°C° 0 mm 2 m/s 747 mmHg 54%
18:00 +23°C° 0 mm 2 m/s 747 mmHg 57%
19:00 +20°C° 0 mm 2 m/s 747 mmHg 61%
20:00 +19°C° 0 mm 2 m/s 747 mmHg 61%
21:00 +18°C° 0 mm 2 m/s 747 mmHg 61%
22:00 +18°C° 0 mm 1 m/s 747 mmHg 60%
23:00 +17°C° 0 mm 2 m/s 747 mmHg 61%

24 Septembrie, Joi

Timp Temperatura Precipitaţii Vânt Presiune Umiditate
00:00 +16°C° 0 mm 2 m/s 747 mmHg 62%
01:00 +16°C° 0 mm 2 m/s 747 mmHg 63%
02:00 +16°C° 0 mm 2 m/s 747 mmHg 63%
03:00 +16°C° 0 mm 2 m/s 746 mmHg 64%
04:00 +15°C° 0 mm 2 m/s 746 mmHg 65%
05:00 +16°C° 0 mm 3 m/s 746 mmHg 66%
06:00 +16°C° 0 mm 3 m/s 746 mmHg 67%
07:00 +15°C° 0 mm 4 m/s 746 mmHg 68%
08:00 +18°C° 0 mm 4 m/s 746 mmHg 65%
09:00 +20°C° 0 mm 5 m/s 746 mmHg 62%
10:00 +22°C° 0 mm 5 m/s 747 mmHg 59%
11:00 +22°C° 0 mm 5 m/s 747 mmHg 57%
12:00 +23°C° 0 mm 5 m/s 747 mmHg 55%
13:00 +25°C° 0 mm 5 m/s 747 mmHg 52%
14:00 +25°C° 0.3 mm 5 m/s 747 mmHg 55%
15:00 +23°C° 0.3 mm 4 m/s 747 mmHg 58%
16:00 +23°C° 0.3 mm 4 m/s 746 mmHg 61%
17:00 +21°C° 0.1 mm 3 m/s 747 mmHg 69%
18:00 +19°C° 0.1 mm 2 m/s 747 mmHg 77%
19:00 +18°C° 0.1 mm 1 m/s 747 mmHg 84%
20:00 +18°C° 0 mm 1 m/s 747 mmHg 85%
21:00 +16°C° 0 mm 2 m/s 747 mmHg 86%
22:00 +16°C° 0 mm 2 m/s 747 mmHg 87%
23:00 +16°C° 0 mm 2 m/s 746 mmHg 87%

25 Septembrie, Vineri

Timp Temperatura Precipitaţii Vânt Presiune Umiditate
00:00 +16°C° 0 mm 2 m/s 746 mmHg 88%
01:00 +16°C° 0 mm 2 m/s 746 mmHg 88%
02:00 +16°C° 0.5 mm 2 m/s 745 mmHg 89%
03:00 +14°C° 0.5 mm 3 m/s 745 mmHg 91%
04:00 +14°C° 0.5 mm 3 m/s 745 mmHg 92%
05:00 +14°C° 2.8 mm 3 m/s 744 mmHg 93%
06:00 +15°C° 2.8 mm 2 m/s 744 mmHg 95%
07:00 +15°C° 2.8 mm 1 m/s 744 mmHg 97%
08:00 +15°C° 5.7 mm 1 m/s 743 mmHg 96%
09:00 +15°C° 5.7 mm 1 m/s 743 mmHg 96%
10:00 +15°C° 5.7 mm 1 m/s 743 mmHg 95%
11:00 +15°C° 0.9 mm 1 m/s 742 mmHg 94%
12:00 +16°C° 0.9 mm 2 m/s 742 mmHg 92%
13:00 +16°C° 0.9 mm 2 m/s 742 mmHg 90%
14:00 +16°C° 0.6 mm 2 m/s 742 mmHg 90%
15:00 +16°C° 0.6 mm 3 m/s 742 mmHg 90%
16:00 +16°C° 0.6 mm 3 m/s 741 mmHg 90%
17:00 +14°C° 0.2 mm 3 m/s 741 mmHg 90%
18:00 +15°C° 0.2 mm 2 m/s 741 mmHg 91%
19:00 +14°C° 0.2 mm 2 m/s 742 mmHg 92%
20:00 +14°C° 0 mm 2 m/s 742 mmHg 92%
21:00 +13°C° 0 mm 3 m/s 742 mmHg 93%
22:00 +12°C° 0 mm 3 m/s 742 mmHg 93%
23:00 +12°C° 0 mm 3 m/s 742 mmHg 92%

26 Septembrie, Sâmbătă

Timp Temperatura Precipitaţii Vânt Presiune Umiditate
00:00 +11°C° 0 mm 3 m/s 742 mmHg 91%
01:00 +11°C° 0 mm 3 m/s 742 mmHg 89%
02:00 +11°C° 0 mm 3 m/s 742 mmHg 88%
03:00 +11°C° 0 mm 4 m/s 742 mmHg 87%
04:00 +11°C° 0 mm 4 m/s 742 mmHg 85%
05:00 +11°C° 0.1 mm 4 m/s 742 mmHg 86%
06:00 +11°C° 0.1 mm 4 m/s 743 mmHg 86%
07:00 +11°C° 0.1 mm 4 m/s 743 mmHg 87%
08:00 +11°C° 0.1 mm 4 m/s 743 mmHg 85%
09:00 +11°C° 0.1 mm 4 m/s 743 mmHg 84%
10:00 +12°C° 0.1 mm 5 m/s 744 mmHg 83%
11:00 +12°C° 0 mm 5 m/s 743 mmHg 80%
12:00 +13°C° 0 mm 6 m/s 743 mmHg 77%
13:00 +14°C° 0 mm 6 m/s 743 mmHg 74%
14:00 +13°C° 0 mm 6 m/s 743 mmHg 76%
15:00 +13°C° 0 mm 6 m/s 743 mmHg 78%
16:00 +11°C° 0 mm 6 m/s 743 mmHg 80%
17:00 +11°C° 0.6 mm 6 m/s 743 mmHg 83%
18:00 +11°C° 0.6 mm 7 m/s 742 mmHg 86%
19:00 +10°C° 0.6 mm 7 m/s 742 mmHg 89%
20:00 +11°C° 1.9 mm 7 m/s 742 mmHg 90%
21:00 +11°C° 1.9 mm 7 m/s 741 mmHg 91%
22:00 +11°C° 1.9 mm 8 m/s 741 mmHg 92%
23:00 +11°C° 2.2 mm 8 m/s 740 mmHg 93%
Arată mai mult